Flag for Finland Weather past 2 weeks in Ivalo, Finland

Now
45 °F

Sunny.


Feels Like: 41 °F
Forecast: 42 / 54 °F
Wind: 6 mph from Southwest

Location: Ivalo

Current Time: Sep 4, 2015 at 9:44:07 AM

Latest Report: Sep 4, 2015 at 8:50 AM


Visibility: 10 mi

Pressure: 29.68 "Hg

Humidity: 81%

Dew point: 39 °F

Location of IvaloLocation

Historic Weather in Ivalo — Graph

°F

Ivalo temperature yesterday

Maximum temperature yesterday: 54 °F (at 2:50 PM)
Minimum temperature yesterday: 36 °F (at 12:50 AM)
Average temperature yesterday: 47 °F

Past Weeks' High & Low Weather Summary

 TemperatureHumidityPressure
High77 °F (Aug 20, 3:50 PM)100% (Aug 22, 1:20 AM)30.27 "Hg (Aug 22, 1:20 AM)
Low36 °F (Aug 27, 5:50 AM)29% (Aug 21, 1:50 PM)29.59 "Hg (Aug 29, 8:20 AM)
Average54 °F77%29.99 "Hg
* Reported Aug 20 8:20 AM — Sep 4 8:20 AM, Ivalo, Weather by CustomWeather, © 2015

Note: Actual official high and low records may vary slightly from our data, if they occured in-between our weather recording intervals... More about our weather records

Advertising

Ivalo weather history for previous 24 hours

 ConditionsComfort  
Time TempWeatherWind HumidityBarometerVisibility
8:20 AM
Fri, Sep 4
43 °FSunny.6 mph81%29.68 "Hg10 mi
7:50 AM43 °FSunny.7 mph81%29.68 "Hg10 mi
7:20 AM43 °FSunny.5 mph81%29.68 "Hg10 mi
6:50 AM43 °FSunny.6 mph81%29.68 "Hg10 mi
6:20 AM43 °FClear.2 mph81%29.68 "Hg10 mi
5:50 AM43 °FPassing clouds.5 mph81%29.68 "HgN/A
5:20 AM43 °FClear.2 mph81%29.68 "Hg10 mi
4:50 AM43 °FClear.5 mph81%29.71 "Hg10 mi
4:20 AM45 °FClear.5 mph76%29.71 "Hg10 mi
3:50 AM45 °FClear.No wind76%29.71 "Hg10 mi
3:20 AM45 °FClear.3 mph81%29.71 "Hg10 mi
2:50 AM45 °FClear.7 mph81%29.71 "Hg10 mi
2:20 AM43 °FClear.7 mph87%29.71 "Hg10 mi
1:50 AM45 °FClear.6 mph81%29.71 "Hg10 mi
1:20 AM46 °FClear.3 mph76%29.71 "Hg10 mi
12:50 AM46 °FClear.3 mph76%29.71 "Hg10 mi
12:20 AM48 °FClear.3 mph66%29.71 "Hg10 mi
11:50 PM
Thu, Sep 3
48 °FClear.3 mph71%29.71 "Hg10 mi
11:20 PM50 °FOvercast.2 mph67%29.71 "HgN/A
10:50 PM50 °FOvercast.2 mph76%29.74 "HgN/A
10:20 PM50 °FPassing clouds.1 mph76%29.74 "HgN/A
9:50 PM50 °FOvercast.3 mph76%29.74 "HgN/A
9:20 PM48 °FOvercast.No wind87%29.74 "HgN/A
8:50 PM50 °FOvercast.1 mph82%29.74 "HgN/A
8:20 PM50 °FOvercast.No wind82%29.77 "HgN/A
7:50 PM50 °FOvercast.No wind88%29.77 "HgN/A
7:20 PM52 °FOvercast.2 mph72%29.77 "HgN/A
6:50 PM52 °FPartly sunny.1 mph72%29.77 "HgN/A
6:20 PM50 °FPartly sunny.2 mph82%29.80 "HgN/A
5:50 PM52 °FPartly sunny.3 mph72%29.80 "HgN/A
5:20 PM52 °FPartly sunny.1 mph67%29.80 "HgN/A
4:50 PM52 °FOvercast.3 mph67%29.83 "HgN/A
4:20 PM54 °FOvercast.7 mph63%29.83 "HgN/A
3:50 PM54 °FPartly sunny.8 mph63%29.83 "HgN/A
3:20 PM52 °FBroken clouds.9 mph67%29.83 "HgN/A
2:50 PM54 °FPartly sunny.10 mph63%29.83 "HgN/A
2:20 PM52 °FPartly sunny.8 mph62%29.86 "HgN/A
1:50 PM52 °FPassing clouds.6 mph62%29.86 "HgN/A
1:20 PM52 °FPartly sunny.8 mph67%29.86 "HgN/A
12:50 PM50 °FPartly sunny.12 mph67%29.86 "HgN/A
12:20 PM50 °FPartly sunny.10 mph67%29.89 "HgN/A
11:50 AM50 °FBroken clouds.9 mph67%29.89 "HgN/A
11:20 AM48 °FSunny.13 mph71%29.89 "Hg10 mi
10:50 AM48 °FPassing clouds.12 mph71%29.89 "HgN/A
10:20 AM46 °FSunny.9 mph76%29.89 "Hg10 mi
9:50 AM46 °FPartly sunny.8 mph76%29.92 "HgN/A
9:20 AM45 °FPartly sunny.5 mph81%29.92 "HgN/A
Weather by CustomWeather, © 2015

See weather overviewHow to use our weather pages